Location: Elaina
(34.1445°N, 106.7742°W)
Time: 17:12:14
(UTC+00:00)

Okean 1 - Pass Details

Date: 11 December 2025
Orbit: 465 x 483 km, 82.5° (Epoch: 22 January)

Event Time Altitude Azimuth Distance (km) Brightness Sun altitude
Exits shadow 12:36:21 - 1° (N) 1,969 6.0 -17.4°
Reaches altitude 10° 12:37:12 10° 3° (N) 1,623 5.6 -17.3°
Maximum altitude 12:40:40 54° 82° (E) 568 3.7 -16.6°
Drops below altitude 10° 12:44:08 10° 161° (SSE) 1,613 6.2 -15.9°
Sets 12:46:14 0° 166° (SSE) 2,486 7.1 -15.5°
